This demonstration page uses our WeatherBlox Daily Observations layout. Learn more.

Left ArrowRight Arrow

Hourly Observations for November 6, 2020

Temp ( °F °C ) Dew Point ( °F °C ) Humidity (%) Winds ( mph kmh ) Pressure ( in mb ) Visibility ( mi km ) Precip ( " mm )
12:52 am 00:52 Partly Cloudy 50 10 43 6.1 77 77 S 6 9 30.09 1019 10 16 0.00 0.00
1:52 am 01:52 Mostly Clear 47 8.3 43 6.1 86 86 SSE 9 15 30.08 1019 10 16 0.00 0.00
2:52 am 02:52 Partly Cloudy 46 7.8 42 5.6 86 86 S 7 11 30.07 1018 10 16 0.00 0.00
3:52 am 03:52 Partly Cloudy 44 6.7 41 5 89 89 SSE 6 9 30.06 1018 10 16 0.00 0.00
4:52 am 04:52 Partly Cloudy 44 6.7 42 5.6 93 93 SSE 8 13 30.07 1018 10 16 0.00 0.00
5:52 am 05:52 Partly Cloudy 44 6.7 42 5.6 93 93 SSE 9 15 30.07 1018 10 16 0.00 0.00
6:52 am 06:52 Partly Cloudy 42 5.6 41 5 96 96 SE 13 20 30.07 1018 10 16 0.00 0.00
7:52 am 07:52 Mostly Cloudy 46 7.8 44 6.7 93 93 SSE 8 13 30.07 1018 10 16 0.00 0.00
8:52 am 08:52 Partly Cloudy 50 10 45 7.2 83 83 SSE 8 13 30.07 1018 10 16 0.00 0.00
9:52 am 09:52 Partly Cloudy 56 13.3 47 8.3 72 72 SSE 10 17 30.06 1018 10 16 0.00 0.00
10:52 am 10:52 Mostly Sunny 62 16.7 47 8.3 58 58 S 9 15 30.04 1017 10 16 0.00 0.00
11:52 am 11:52 Mostly Sunny 68 20 48 8.9 49 49 S 12 19 30.01 1016 10 16 0.00 0.00
12:52 pm 12:52 Partly Cloudy 72 22.2 48 8.9 43 43 S 14 22 29.98 1015 10 16 0.00 0.00
1:52 pm 13:52 Partly Cloudy 76 24.4 47 8.3 36 36 S 17 28 29.95 1014 10 16 0.00 0.00
2:52 pm 14:52 Partly Cloudy 77 25 45 7.2 32 32 S 20 31 29.93 1014 10 16 0.00 0.00
3:52 pm 15:52 Partly Cloudy 76 24.4 47 8.3 36 36 S 14 22 29.93 1013 10 16 0.00 0.00
4:52 pm 16:52 Partly Cloudy 72 22.2 51 10.6 48 48 SSE 20 31 29.93 1013 10 16 0.00 0.00
5:52 pm 17:52 Partly Cloudy 68 20 51 10.6 55 55 SSE 13 20 29.93 1014 10 16 0.00 0.00
6:52 pm 18:52 Mostly Clear 67 19.4 54 12.2 63 63 S 22 35 29.94 1014 10 16 0.00 0.00
7:52 pm 19:52 Mostly Clear 64 17.8 55 12.8 73 73 S 21 33 29.96 1014 10 16 0.00 0.00
8:52 pm 20:52 Partly Cloudy 61 16.1 56 13.3 84 84 SSE 14 22 29.96 1014 10 16 0.00 0.00
9:52 pm 21:52 Partly Cloudy 60 15.6 55 12.8 84 84 S 13 20 29.96 1014 10 16 0.00 0.00
10:52 pm 22:52 Partly Cloudy 59 15 55 12.8 87 87 SSE 13 20 29.95 1014 10 16 0.00 0.00
11:52 pm 23:52 Mostly Cloudy 58 14.4 54 12.2 87 87 SSE 13 20 29.94 1014 10 16 0.00 0.00

Powered by AerisWeather